EW9827 Weather Reports


Display with metric or nautical units.
time (UTC)temp
F
wind
direction
speed
MPH
gust
MPH
rain 1hr
in
rain 24hr
in
rain mn
in
humidity
%
barometer
mb
20180623054907 57 138 3.0 17.0 0.00 0.70 0.00 94 1011.4
20180623053401 57 122 5.0 12.0 0.00 0.70 0.00 93 1011.5
20180623051858 58 139 4.0 9.0 0.00 0.70 0.00 93 1011.5
20180623050358 58 71 5.0 13.0 0.00 0.70 0.00 93 1011.6
20180623044855 58 157 5.0 11.0 0.00 0.70 0.00 93 1011.7
20180623043354 58 130 6.0 11.0 0.00 0.70 0.00 93 1011.6
20180623041852 58 145 3.0 14.0 0.00 0.70 0.00 94 1011.8
20180623040348 58 102 3.0 9.0 0.00 0.70 0.00 95 1011.7
20180623034847 58 139 5.0 12.0 0.00 0.70 0.70 95 1011.7
20180623033346 58 149 5.0 15.0 0.00 0.70 0.70 94 1012.0
20180623031845 58 91 7.0 18.0 0.00 0.70 0.70 94 1012.1
20180623030345 58 124 4.0 12.0 0.00 0.70 0.70 94 1012.3
20180623024844 58 79 3.0 9.0 0.00 0.70 0.70 94 1012.4
20180623023345 58 124 4.0 10.0 0.00 0.70 0.70 94 1012.5
20180623021843 58 155 4.0 11.0 0.00 0.70 0.70 94 1012.3
20180623020344 58 133 4.0 9.0 0.00 0.70 0.70 95 1012.1
20180623014841 58 136 4.0 10.0 0.00 0.70 0.70 95 1012.2
20180623013343 58 105 3.0 10.0 0.00 0.70 0.70 95 1012.2
20180623011841 58 114 5.0 12.0 0.00 0.70 0.70 95 1012.0
20180623010340 58 128 3.0 10.0 0.00 0.70 0.70 95 1012.1
20180623004840 58 149 3.0 8.0 0.00 0.70 0.70 95 1012.2
20180623003341 58 208 1.0 7.0 0.00 0.70 0.70 95 1012.3
20180623001839 58 180 4.0 13.0 0.00 0.70 0.70 95 1012.5
20180623000338 58 131 6.0 14.0 0.00 0.70 0.70 95 1012.4
20180622234836 58 127 5.0 14.0 0.01 0.70 0.70 95 1012.3
20180622233440 58 141 6.0 12.0 0.01 0.70 0.70 96 1012.5
20180622231836 58 160 6.0 17.0 0.04 0.70 0.70 95 1012.5
20180622230334 59 188 8.0 14.0 0.12 0.70 0.70 96 1012.7
20180622224834 59 145 6.0 14.0 0.17 0.69 0.69 96 1012.6
20180622223337 60 86 5.0 15.0 0.20 0.69 0.69 95 1012.4
20180622221833 60 127 7.0 14.0 0.25 0.66 0.66 95 1012.4
20180622220332 60 128 6.0 14.0 0.32 0.57 0.57 95 1012.5
20180622214831 60 203 4.0 13.0 0.33 0.52 0.52 95 1012.4
20180622213334 61 144 4.0 14.0 0.38 0.49 0.49 95 1012.5
20180622211830 61 67 3.0 11.0 0.30 0.39 0.39 95 1012.5
20180622210330 61 131 5.0 14.0 0.18 0.26 0.26 95 1012.6
20180622204828 61 108 3.0 8.0 0.13 0.19 0.19 95 1012.5
20180622203326 62 169 2.0 6.0 0.08 0.11 0.11 95 1012.4
20180622201826 62 117 2.0 4.0 0.08 0.09 0.09 94 1012.4
20180622200327 62 129 1.0 6.0 0.08 0.08 0.08 94 1012.8
20180622194823 62 127 2.0 10.0 0.05 0.05 0.05 92 1012.8
20180622193322 63 85 5.0 12.0 0.03 0.03 0.03 89 1012.6
20180622191820 64 108 6.0 13.0 0.01 0.01 0.01 86 1012.5
20180622190322 66 153 8.0 14.0 0.00 0.00 0.00 80 1012.4
20180622184820 66 160 6.0 18.0 0.00 0.00 0.00 78 1012.3
20180622183322 66 179 6.0 14.0 0.00 0.00 0.00 78 1012.5
20180622181818 67 127 7.0 16.0 0.00 0.00 0.00 76 1012.4
20180622180317 67 139 5.0 13.0 0.00 0.00 0.00 78 1012.5
20180622174817 66 136 7.0 15.0 0.00 0.00 0.00 77 1012.6
20180622173317 67 124 8.0 20.0 0.00 0.00 0.00 78 1012.8
20180622171814 67 143 5.0 11.0 0.00 0.00 0.00 79 1012.9
20180622170316 66 173 2.0 8.0 0.00 0.00 0.00 81 1012.9
20180622164815 66 134 5.0 10.0 0.00 0.00 0.00 79 1013.1
20180622163315 66 110 3.0 10.0 0.00 0.00 0.00 79 1012.9
20180622161810 66 149 3.0 9.0 0.00 0.00 0.00 79 1012.9
20180622160309 65 120 1.0 7.0 0.00 0.00 0.00 80 1012.9
20180622154805 64 140 2.0 7.0 0.00 0.00 0.00 80 1012.9
20180622153307 63 198 2.0 7.0 0.00 0.00 0.00 80 1013.2
20180622151800 61 161 2.0 8.0 0.00 0.00 0.00 84 1013.2
20180622150301 60 207 2.0 7.0 0.00 0.00 0.00 83 1013.2
20180622144759 60 107 0.0 5.0 0.00 0.00 0.00 82 1013.2
20180622143300 60 124 2.0 5.0 0.00 0.00 0.00 80 1013.3
20180622141758 59 148 2.0 6.0 0.00 0.00 0.00 79 1013.2
20180622140256 58 131 0.0 3.0 0.00 0.00 0.00 79 1013.2
20180622134756 58 140 1.0 6.0 0.00 0.00 0.00 77 1013.1
20180622133255 57 148 1.0 5.0 0.00 0.00 0.00 77 1013.1
20180622131757 57 151 1.0 7.0 0.00 0.00 0.00 76 1013.1
20180622130254 57 135 1.0 7.0 0.00 0.00 0.00 75 1013.0
20180622124752 56 132 0.0 3.0 0.00 0.00 0.00 75 1012.7
20180622123251 56 121 0.0 0.0 0.00 0.00 0.00 75 1012.8
20180622121752 55 142 1.0 4.0 0.00 0.00 0.00 76 1012.6
20180622120249 55 82 1.0 6.0 0.00 0.00 0.00 74 1012.5
20180622114749 55 114 0.0 6.0 0.00 0.00 0.00 74 1012.6
20180622113254 54 127 0.0 3.0 0.00 0.00 0.00 74 1012.5
20180622111746 54 174 1.0 7.0 0.00 0.00 0.00 72 1012.6
20180622110246 54 205 0.0 4.0 0.00 0.00 0.00 72 1012.5
20180622104744 54 133 2.0 7.0 0.00 0.00 0.00 73 1012.4
20180622103247 54 138 1.0 7.0 0.00 0.00 0.00 71 1012.4
20180622101742 54 165 1.0 6.0 0.00 0.00 0.00 69 1012.5
20180622100244 55 113 0.0 4.0 0.00 0.00 0.00 69 1012.2
20180622094742 55 131 2.0 6.0 0.00 0.00 0.00 69 1012.1
20180622093237 55 128 2.0 8.0 0.00 0.00 0.00 70 1012.1
20180622091742 55 206 1.0 5.0 0.00 0.00 0.00 71 1012.2
20180622090235 55 144 2.0 9.0 0.00 0.00 0.00 70 1012.2
20180622084731 55 163 1.0 5.0 0.00 0.01 0.00 72 1012.2
20180622083232 55 123 1.0 6.0 0.00 0.01 0.00 74 1012.1
20180622081727 56 148 0.0 4.0 0.00 0.01 0.00 76 1011.9
20180622080225 56 155 1.0 4.0 0.00 0.01 0.00 76 1011.8
20180622074724 56 119 1.0 4.0 0.00 0.01 0.00 77 1011.7
20180622073220 57 152 1.0 6.0 0.00 0.01 0.00 78 1011.6
20180622071720 57 183 1.0 5.0 0.00 0.01 0.00 79 1011.6
20180622070218 57 248 0.0 3.0 0.00 0.01 0.00 80 1011.5
20180622064715 58 141 0.0 5.0 0.00 0.01 0.00 81 1011.7
20180622063214 58 168 2.0 7.0 0.00 0.01 0.00 82 1011.7
20180622061714 58 200 1.0 5.0 0.00 0.01 0.00 83 1011.7
20180622060210 59 158 1.0 5.0 0.00 0.01 0.00 84 1011.7